Location: Culleoka
(33.1312°N, 96.4919°W)
Time: 11:23:18
(UTC+00:00)

Cosmos 1500 Rocket - Pass Details

Date: 08 July 2022
Orbit: 602 x 631 km, 82.5° (Epoch: 11 August)

Event Time Altitude Azimuth Distance (km) Brightness Sun altitude
Exits shadow 07:40:55 12° 82° (E) 1,862 6.3 -32.0°
Drops below altitude 10° 07:42:27 10° 62° (ENE) 2,010 6.7 -31.9°
Sets 07:46:00 0° 32° (NNE) 2,926 8.1 -31.6°
